User: anonymous   Login
Location: Unspecified
(0.0000°N, 0.0000°E)
Time: 12:34:52
(UTC+00:00)
Language:

Kosmos-1605 - Orbit

View from above orbital plane
View from above orbital plane
View from above satellite
View from above satellite

Ground track
Ground track

The orbit data is extracted from the following two-line orbital elements,

1 15359U 84109A   18020.79138587 +.00000037 +00000-0 +23466-4 0  9999
2 15359 082.9398 267.6771 0045130 247.4319 155.7290 13.75159984669948
Epoch (UTC): 20 January 2018 18:59:35
Eccentricity: 0.0045130
inclination: 82.9398°
perigee height: 948 km
apogee height: 1014 km
right ascension of ascending node: 267.6771°
argument of perigee: 247.4319°
revolutions per day: 13.75159984
mean anomaly at epoch: 155.7290°
orbit number at epoch: 66994

The dashed part of the orbit path shows where the satellite is in the earth's shadow,  

DLR